Location: Blanot
(47.1713°N, 4.2340°E)
Time: 04:09:09
(UTC+00:00)

Cosmos 1850 Rocket - Pass Details

Date: 14 July 2020
Orbit: 754 x 785 km, 74.0° (Epoch: 06 August)

Event Time Altitude Azimuth Distance (km) Brightness Sun altitude
Exits shadow 02:46:39 11° 196° (SSW) 2,301 5.9 -10.4°
Maximum altitude 02:51:52 81° 111° (ESE) 801 4.1 -9.8°
Drops below altitude 10° 02:57:14 10° 24° (NNE) 2,351 7.8 -9.2°
Sets 02:59:37 0° 24° (NNE) 3,281 8.8 -8.9°
